User: anonymous   Login
Location: Newark
(11.5710°N, 104.9241°E)
Time: 04:19:38
(UTC+00:00)
Language:

METEOR M2 - Orbit

View from above orbital plane
View from above orbital plane
View from above satellite
View from above satellite

Ground track
Ground track

The orbit data is extracted from the following two-line orbital elements,

1 40069U 14037A   20091.01486382 -.00000043 +00000-0 -28300-6 0  9996
2 40069 098.5126 131.4782 0006409 140.0211 220.1445 14.20671043297077
Epoch (UTC): 31 March 2020 00:21:24
Eccentricity: 0.0006409
inclination: 98.5126°
perigee height: 818 km
apogee height: 828 km
right ascension of ascending node: 131.4782°
argument of perigee: 140.0211°
revolutions per day: 14.20671043
mean anomaly at epoch: 220.1445°
orbit number at epoch: 29707

The dashed part of the orbit path shows where the satellite is in the earth's shadow,  

DLR